Content
SEND FEEDBACK

Daily
Averages
Monthly
Summary
United States of America

CHICAGO, ILLINOIS


Home > North America > United States > Illinois
Elevation: 674 feet     Latitude: 41 59N     Longitude: 087 54W

WEATHER
 
SELECT A DAY
Number of Records: 194,730;   Date Range: 7/8/95 - 7/7/14
 
SHARE

PRINT THIS DATA

[ ← Previous Day ]
WEATHER ALMANAC - MAY 10, 2013
[ Next Day → ]
[ °C ]   °F
Weather ElementAverageHighLow
Temperature45.3 °F46.9 °F (3:52 pm)44.6 °F (4:43 am)
Dewpoint41.5 °F45 °F (12:52 am)39 °F (4:52 pm)
Humidity87 %100 % (12:52 am)76 % (4:42 pm)
Barometer29.93 in30.00 in (7:52 pm)29.80 in (3:52 am)
Wind Speed8.1 mph18.4 mph (4:42 pm)
Wind Gust25.3 mph (4:42 pm)
Weather ElementAverage
Visibility8 mi
Wind DirectionS (181.6 °)

Weather ElementTotal
Precipitation---
Heating Degree Days19.3 (Base 65)
Averaged from 32 records on May 10, 2013
WEATHER CONDITIONS BREAKOUT
WIND DIRECTION BREAKOUT
WEATHER BY HOUR - MAY 10, 2013
[ °C ]   °F
Local TimeTemperatureDewpointHumidityBarometerVisibilityWind DirectionWind SpeedGust SpeedPrecipitationEventsConditions
12:52 AM45.0 °F45.0 °F100 %29.86 in9.0 miNNE (20°)8.1 mph0.00 inOvercast
1:52 AM45.0 °F45.0 °F100 %29.83 in9.0 miNNE (20°)9.2 mph0.00 inOvercast
2:52 AM45.0 °F44.1 °F97 %29.81 in4.0 miNNE (30°)6.9 mphOvercast
3:52 AM45.0 °F44.1 °F97 %29.80 in3.0 miNorth (10°)6.9 mph0.00 inOvercast
4:29 AM46.4 °F44.6 °F93 %29.81 in2.0 miNNW (330°)4.6 mphRainHeavy Rain
4:43 AM44.6 °F44.6 °F100 %29.82 in3.0 miNNW (330°)5.8 mphRainLight Rain
4:52 AM45.0 °F44.1 °F97 %29.83 in5.0 miNW (310°)6.9 mphRainLight Rain
5:52 AM45.0 °F42.1 °F90 %29.84 in10.0 miNNW (330°)10.4 mphOvercast
6:52 AM45.0 °F43.0 °F93 %29.87 in4.0 miNorth (350°)6.9 mphOvercast
7:52 AM45.0 °F43.0 °F93 %29.88 in3.0 miNorth (350°)10.4 mphOvercast
8:52 AM46.0 °F44.1 °F93 %29.89 in4.0 miNorth (350°)10.4 mphOvercast
9:52 AM46.0 °F43.0 °F89 %29.92 in10.0 miNNW (340°)11.5 mphOvercast
10:52 AM46.0 °F43.0 °F89 %29.92 in9.0 miNorth (350°)12.7 mph20.7 mphOvercast
11:52 AM45.0 °F42.1 °F90 %29.95 in10.0 miNorth (360°)10.4 mphOvercast
12:52 PM45.0 °F41.0 °F86 %29.96 in10.0 miNorth (360°)13.8 mphOvercast
1:52 PM45.0 °F39.9 °F82 %29.97 in10.0 miNorth (10°)15.0 mph21.9 mphOvercast
2:27 PM44.6 °F39.2 °F81 %29.97 in10.0 miNNE (20°)6.9 mphOvercast
2:52 PM46.0 °F39.9 °F79 %29.98 in10.0 miNorth (360°)10.4 mph20.7 mphOvercast
3:52 PM46.9 °F39.9 °F77 %29.95 in10.0 miNorth (10°)12.7 mph20.7 mphOvercast
4:42 PM46.4 °F39.2 °F76 %29.95 in10.0 miNorth (10°)18.4 mph25.3 mphOvercast
4:52 PM46.0 °F39.0 °F76 %29.96 in10.0 miNorth (10°)12.7 mph24.2 mphOvercast
5:52 PM46.0 °F39.0 °F76 %29.98 in10.0 miNNE (20°)6.9 mphOvercast
6:45 PM44.6 °F39.2 °F81 %29.97 in10.0 miENE (60°)5.8 mphOvercast
6:52 PM45.0 °F39.0 °F80 %29.99 in10.0 miNE (50°)5.8 mphOvercast
7:34 PM44.6 °F39.2 °F81 %29.98 in9.0 miNE (40°)4.6 mphOvercast
7:52 PM45.0 °F39.9 °F82 %30.00 in8.0 miNorth (10°)8.1 mphOvercast
8:52 PM45.0 °F39.9 °F82 %30.00 in9.0 miNNW (330°)4.6 mphOvercast
9:29 PM44.6 °F39.2 °F81 %29.99 in8.0 miNorth (350°)4.6 mphOvercast
9:45 PM44.6 °F41.0 °F87 %29.99 in9.0 miNNW (340°)5.8 mphOvercast
9:52 PM45.0 °F41.0 °F86 %30.00 in9.0 miNorth (350°)3.5 mphOvercast
10:52 PM45.0 °F41.0 °F86 %29.99 in9.0 miCalmOvercast
11:52 PM46.0 °F41.0 °F83 %29.99 in9.0 miCalmOvercast
Hourly data recorded from KPWK, located miles away from Chicago, Illinois







STORIES FROM OUR PARTNERS